AAL458 KATL-KILM

Flight info

Callsign AAL458
Flight time N/A
Altitude 22000
Route GAIRY2 IRQ YUTEE Q172 RAPZZ
Aircraft A321/M-SDE3FGHIRWY/LB1

Departure

Time 2026-05-04 16:36
Airport Hartsfield Jackson Atlanta International Airport (KATL)

Arrival

Time N/A
Airport Wilmington International Airport (KILM)
Time Latitude Longitude Altitude Speed Heading
2026-05-04 16:13 33.63995 -84.42872 1007 ft 0 kts 285°
2026-05-04 16:29 33.63990 -84.42833 1006 ft 4 kts 262°
2026-05-04 16:30 33.64005 -84.42807 1006 ft 0 kts 180°
2026-05-04 16:32 33.63922 -84.42806 1006 ft 9 kts 180°
2026-05-04 16:33 33.63786 -84.42806 1006 ft 11 kts 180°
2026-05-04 16:33 33.63631 -84.42770 1006 ft 12 kts 175°
2026-05-04 16:34 33.63580 -84.42947 1006 ft 14 kts 269°
2026-05-04 16:34 33.63580 -84.43064 1006 ft 14 kts 270°
2026-05-04 16:35 33.63477 -84.42995 1006 ft 12 kts 112°
2026-05-04 16:35 33.63471 -84.41555 1006 ft 155 kts 90°
2026-05-04 16:36 33.63471 -84.40093 1469 ft 174 kts 90°
2026-05-04 16:36 33.63475 -84.37306 3357 ft 175 kts 91°
2026-05-04 16:37 33.63440 -84.34090 3875 ft 214 kts 91°
2026-05-04 16:37 33.63418 -84.32207 4055 ft 237 kts 91°
2026-05-04 16:37 33.63375 -84.27891 4500 ft 281 kts 90°
2026-05-04 16:38 33.63365 -84.22838 4983 ft 324 kts 89°
2026-05-04 16:39 33.63413 -84.13917 5439 ft 384 kts 89°
2026-05-04 16:39 33.62793 -84.07616 6931 ft 381 kts 107°
2026-05-04 16:40 33.61176 -84.01571 8405 ft 379 kts 108°
2026-05-04 16:40 33.59554 -83.95572 9808 ft 377 kts 108°
2026-05-04 16:41 33.57906 -83.89466 10436 ft 399 kts 108°
2026-05-04 16:41 33.55276 -83.79704 11711 ft 412 kts 108°
2026-05-04 16:42 33.52633 -83.69918 13515 ft 412 kts 108°
2026-05-04 16:43 33.51371 -83.63238 14575 ft 413 kts 91°
2026-05-04 16:43 33.52028 -83.56418 15663 ft 413 kts 78°
2026-05-04 16:43 33.52504 -83.53025 16219 ft 413 kts 78°
2026-05-04 16:44 33.54387 -83.39407 18326 ft 415 kts 78°
2026-05-04 16:45 33.55324 -83.32611 19341 ft 416 kts 78°
2026-05-04 16:46 33.56735 -83.22321 20821 ft 417 kts 78°
2026-05-04 16:46 33.57672 -83.15443 21744 ft 418 kts 78°
2026-05-04 16:47 33.58611 -83.08541 22144 ft 420 kts 78°
2026-05-04 16:47 33.59540 -83.01630 22147 ft 419 kts 79°
2026-05-04 16:48 33.60922 -82.91283 22135 ft 419 kts 79°
2026-05-04 16:48 33.61379 -82.87881 22141 ft 418 kts 79°
2026-05-04 16:49 33.62302 -82.80980 22145 ft 419 kts 79°
2026-05-04 16:49 33.63222 -82.74076 22145 ft 419 kts 79°
2026-05-04 16:50 33.64788 -82.62189 22151 ft 419 kts 79°
2026-05-04 16:50 33.68395 -82.34524 22157 ft 419 kts 79°
2026-05-04 16:51 33.72011 -82.06889 22157 ft 419 kts 78°
2026-05-04 16:51 33.73982 -81.93046 22155 ft 419 kts 79°
2026-05-04 16:51 33.77791 -81.65417 22148 ft 419 kts 79°
2026-05-04 16:52 33.83671 -81.38413 22140 ft 417 kts 70°
2026-05-04 16:52 33.87169 -81.25093 22135 ft 418 kts 70°
2026-05-04 16:53 33.94165 -80.98327 22119 ft 418 kts 70°
2026-05-04 16:53 34.03135 -80.57623 22105 ft 422 kts 76°
2026-05-04 16:54 34.05480 -80.43937 22114 ft 423 kts 76°
2026-05-04 16:55 34.14767 -79.88163 22133 ft 423 kts 77°
2026-05-04 16:55 34.19327 -79.60216 22134 ft 423 kts 77°
2026-05-04 16:56 34.22324 -79.41580 22128 ft 424 kts 77°
2026-05-04 16:56 34.23814 -79.32268 22120 ft 424 kts 76°